Flag for Germany Weather past 2 weeks in Brühl (Rhineland), North Rhine-Westphalia, Germany

Now
47 °F

Passing clouds.


Feels Like: N/A
Forecast: 48 / 65 °F
Wind: N/A

Location: Noervenich

Current Time: Aug 20, 2014 at 7:27:55 AM

Latest Report: Aug 20, 2014 at 6:00 AM


Visibility: 25 mi

Pressure: 30.01 "Hg

Humidity: 87%

Dew point: 43 °F

Location of Brühl (Rhineland)Location

Historic Weather in Brühl (Rhineland) — Graph

°F

Brühl (Rhineland) temperature yesterday

Maximum temperature yesterday: 60 °F (at 10:00 AM)
Minimum temperature yesterday: 51 °F (at 7:00 AM)
Average temperature yesterday: 55 °F

Past Weeks' High & Low Weather Summary

 TemperatureHumidityPressure
High80 °F (Aug 8, 3:00 PM)97% (Aug 5, 7:00 AM)30.13 "Hg (Aug 5, 7:00 AM)
Low47 °F (Aug 20, 6:00 AM)41% (Aug 6, 2:00 PM)29.60 "Hg (Aug 10, 7:00 PM)
Average62 °F77%29.89 "Hg
* Reported Aug 5 6:00 AM — Aug 20 6:00 AM, Brühl (Rhineland), Weather by CustomWeather, © 2014

Note: Actual official high and low records may vary slightly from our data, if they occured in-between our weather recording intervals... More about our weather records

Advertising

Brühl (Rhineland) weather history for previous 24 hours

 ConditionsComfort  
Time TempWeatherWind HumidityBarometerVisibility
6:00 AM
Aug 20
47 °FPassing clouds.N/A87%30.01 "Hg25 mi
4:00 AM49 °FClear.2 mph83%30.01 "Hg25 mi
3:00 AM49 °FPassing clouds.3 mph82%30.00 "Hg25 mi
2:00 AM49 °FPassing clouds.3 mph85%30.00 "Hg25 mi
1:00 AM50 °FPassing clouds.2 mph83%30.00 "Hg25 mi
12:00 AM49 °FPassing clouds.1 mph88%30.00 "Hg25 mi
10:00 PM
Aug 19
52 °FPassing clouds.3 mph83%29.97 "Hg28 mi
9:00 PM54 °FPassing clouds.3 mph77%29.95 "Hg28 mi
7:00 PM56 °FOvercast.3 mph79%29.92 "Hg6 mi
6:00 PM59 °FOvercast.6 mph61%29.90 "Hg16 mi
4:00 PM59 °FPartly sunny.7 mph65%29.88 "Hg16 mi
3:00 PM58 °FOvercast.6 mph76%29.87 "Hg16 mi
1:00 PM58 °FSprinkles. Overcast.7 mph82%29.85 "Hg9 mi
12:00 PM58 °FSprinkles. Overcast.5 mph82%29.85 "Hg9 mi
10:00 AM60 °FPartly sunny.6 mph69%29.83 "Hg28 mi
9:00 AM58 °FPartly sunny.5 mph75%29.83 "Hg28 mi
7:00 AM51 °FScattered clouds.2 mph88%29.84 "Hg25 mi
Weather by CustomWeather, © 2014

See weather overviewHow to use our weather pages